Location: Middelsbur
(53.6609°N, 7.5020°E)
Time: 23:54:01
(UTC+00:00)

TSX-5 - Pass Details

Date: 06 July 2020
Orbit: 404 x 1328 km, 68.9° (Epoch: 03 August)

Event Time Altitude Azimuth Distance (km) Brightness Sun altitude
Rises 21:21:24 0° 322° (NW) 2,387 9.4 -8.5°
Reaches altitude 10° 21:23:20 10° 321° (NW) 1,566 7.8 -8.6°
Maximum altitude 21:26:42 74° 236° (SW) 514 3.6 -8.9°
Enters shadow 21:30:20 12° 152° (SSE) 1,693 5.6 -9.2°
